FW2444 Weather Reports


Display with metric or nautical units.
time (UTC)temp
F
wind
direction
speed
MPH
gust
MPH
rain 1hr
in
rain 24hr
in
rain mn
in
humidity
%
barometer
mb
20260506221531 77 270 0.0 0.0 0.00 0.00 0.00 33 1017.9
20260506220033 76 270 0.0 0.0 0.00 0.00 0.00 33 1018.2
20260506214524 76 270 0.0 0.0 0.00 0.00 0.00 34 1018.4
20260506213020 75 270 0.0 0.0 0.00 0.00 0.00 35 1018.6
20260506211521 75 270 0.0 0.0 0.00 0.00 0.00 36 1018.8
20260506210018 75 270 0.0 0.0 0.00 0.00 0.00 35 1019.0
20260506204514 73 270 0.0 0.0 0.00 0.00 0.00 36 1019.1
20260506203011 73 270 0.0 0.0 0.00 0.00 0.00 36 1019.3
20260506201510 73 270 0.0 0.0 0.00 0.00 0.00 38 1019.5
20260506200009 72 270 0.0 0.0 0.00 0.00 0.00 37 1019.7
20260506194508 71 270 0.0 0.0 0.00 0.00 0.00 38 1019.8
20260506193005 71 270 0.0 0.0 0.00 0.00 0.00 39 1020.0
20260506191602 72 270 0.0 0.0 0.00 0.00 0.00 39 1020.3
20260506190058 70 271 0.0 0.0 0.00 0.00 0.00 42 1020.4
20260506184600 68 270 0.0 0.0 0.00 0.00 0.00 43 1020.5
20260506183054 66 270 0.0 0.0 0.00 0.00 0.00 45 1020.6
20260506181551 67 270 0.0 0.0 0.00 0.00 0.00 45 1020.6
20260506180048 66 270 0.0 0.0 0.00 0.00 0.00 44 1020.7
20260506174545 65 270 0.0 0.0 0.00 0.00 0.00 47 1020.8
20260506173059 63 270 0.0 0.0 0.00 0.00 0.00 47 1020.7
20260506171551 63 270 0.0 0.0 0.00 0.00 0.00 49 1020.7
20260506170040 61 270 0.0 0.0 0.00 0.00 0.00 50 1020.6
20260506164537 59 270 0.0 0.0 0.00 0.00 0.00 51 1020.6
20260506163049 60 270 0.0 0.0 0.00 0.00 0.00 50 1020.5
20260506161540 59 270 0.0 0.0 0.00 0.00 0.00 50 1020.5
20260506160034 58 270 0.0 0.0 0.00 0.00 0.00 50 1020.6
20260506154536 57 270 0.0 0.0 0.00 0.00 0.00 51 1020.5
20260506153026 56 270 0.0 0.0 0.00 0.00 0.00 52 1020.5
20260506151523 55 270 0.0 0.0 0.00 0.00 0.00 53 1020.6
20260506150020 55 270 0.0 0.0 0.00 0.00 0.00 54 1020.6
20260506144517 54 270 0.0 0.0 0.00 0.00 0.00 55 1020.6
20260506143017 53 270 0.0 0.0 0.00 0.00 0.00 56 1020.6
20260506141514 52 270 0.0 0.0 0.00 0.00 0.00 56 1020.5
20260506140014 51 270 0.0 0.0 0.00 0.00 0.00 57 1020.4
20260506134513 50 270 0.0 0.0 0.00 0.00 0.00 57 1020.3
20260506133011 50 270 0.0 0.0 0.00 0.00 0.00 56 1020.1
20260506131513 50 270 0.0 0.0 0.00 0.00 0.00 57 1019.9
20260506130010 49 270 0.0 0.0 0.00 0.00 0.00 57 1019.8
20260506124508 50 270 0.0 0.0 0.00 0.00 0.00 57 1019.7
20260506123007 50 270 0.0 0.0 0.00 0.00 0.00 57 1019.7
20260506121506 50 270 0.0 0.0 0.00 0.00 0.00 58 1019.4
20260506120004 50 270 0.0 0.0 0.00 0.00 0.00 58 1019.4
20260506114503 51 270 0.0 0.0 0.00 0.00 0.00 58 1019.3
20260506113003 50 270 0.0 0.0 0.00 0.00 0.00 58 1019.3
20260506111502 50 270 0.0 0.0 0.00 0.00 0.00 58 1019.2
20260506110005 50 270 0.0 0.0 0.00 0.00 0.00 57 1019.2
20260506104600 51 270 0.0 0.0 0.00 0.00 0.00 57 1019.2
20260506103100 50 270 0.0 0.0 0.00 0.00 0.00 58 1019.2
20260506101559 50 270 0.0 0.0 0.00 0.00 0.00 58 1019.1
20260506100057 51 270 0.0 0.0 0.00 0.00 0.00 58 1019.2
20260506094557 51 270 0.0 0.0 0.00 0.00 0.00 58 1019.2
20260506093111 51 270 0.0 0.0 0.00 0.00 0.00 58 1019.2
20260506091554 51 270 0.0 0.0 0.00 0.00 0.00 58 1019.3
20260506090057 51 270 0.0 0.0 0.00 0.00 0.00 58 1019.4
20260506084554 52 270 0.0 0.0 0.00 0.00 0.00 57 1019.6
20260506083049 52 270 0.0 0.0 0.00 0.00 0.00 58 1019.7
20260506081545 52 270 0.0 0.0 0.00 0.00 0.00 57 1019.7
20260506073041 53 270 0.0 0.0 0.00 0.00 0.00 56 1019.8
20260506071540 53 270 0.0 0.0 0.00 0.00 0.00 56 1019.9
20260506061542 54 270 0.0 0.0 0.00 0.00 0.00 54 1019.3
20260506044527 55 270 0.0 0.0 0.00 0.00 0.00 54 1018.8
20260506043027 55 270 0.0 0.0 0.00 0.00 0.00 53 1018.6
20260506041523 55 270 0.0 0.0 0.00 0.00 0.00 54 1018.3
20260506040022 55 270 0.0 0.0 0.00 0.00 0.00 53 1018.1
20260506034520 55 270 0.0 0.0 0.00 0.00 0.00 53 1017.8
20260506033018 56 270 0.0 0.0 0.00 0.00 0.00 52 1017.6
20260506031517 56 270 0.0 0.0 0.00 0.00 0.00 51 1017.4
20260506030015 57 270 0.0 0.0 0.00 0.00 0.00 51 1017.2
20260506024513 57 270 0.0 0.0 0.00 0.00 0.00 52 1016.9
20260506023012 57 270 0.0 0.0 0.00 0.00 0.00 51 1016.7
20260506021512 59 270 0.0 0.0 0.00 0.00 0.00 49 1016.6
20260506020018 60 270 0.0 0.0 0.00 0.00 0.00 47 1016.4
20260506014514 60 270 0.0 0.0 0.00 0.00 0.00 44 1016.5
20260506013010 60 270 0.0 0.0 0.00 0.00 0.00 45 1016.4
20260506011609 60 270 0.0 0.0 0.00 0.00 0.00 45 1016.3
20260506010009 61 270 0.0 0.0 0.00 0.00 0.00 43 1016.4
20260506004520 61 270 0.0 0.0 0.00 0.00 0.00 42 1016.4
20260506003008 61 270 0.0 0.0 0.00 0.00 0.00 40 1016.2
20260506001508 62 270 0.0 0.0 0.00 0.00 0.00 38 1016.2
20260506000008 62 270 0.0 0.0 0.00 0.00 0.00 43 1016.1
20260505234507 62 270 0.0 0.0 0.00 0.00 0.00 42 1016.2
20260505233006 61 270 0.0 0.0 0.00 0.00 0.00 42 1016.2
20260505231508 61 270 0.0 0.0 0.00 0.00 0.00 42 1016.3
20260505230015 60 270 0.0 0.0 0.00 0.00 0.00 43 1016.3
20260505224505 60 270 0.0 0.0 0.00 0.00 0.00 43 1016.4
20260505223004 60 270 0.0 0.0 0.00 0.00 0.00 43 1016.5